KM4DDJ Weather Reports


Display with metric or nautical units.
time (UTC)temp
F
wind
direction
speed
MPH
gust
MPH
rain 1hr
in
rain 24hr
in
rain mn
in
humidity
%
barometer
mb
20260505051532 58 0 0.0 0.0 0.00 0.00 0.00 69 1013.9
20260505051016 58 0 0.0 1.0 0.00 0.00 0.00 69 1013.9
20260505050521 58 0 0.0 1.0 0.00 0.00 0.00 69 1013.9
20260505041548 60 0 0.0 1.0 0.00 0.00 0.00 65 1013.7
20260505041017 61 0 0.0 1.0 0.00 0.00 0.00 64 1013.7
20260505040516 61 0 0.0 0.0 0.00 0.00 0.00 64 1013.8
20260505040040 61 0 0.0 1.0 0.00 0.00 0.00 64 1013.7
20260505035516 61 0 0.0 1.0 0.00 0.00 0.00 63 1013.7
20260505035016 62 0 0.0 1.0 0.00 0.00 0.00 63 1013.7
20260505034532 62 0 0.0 1.0 0.00 0.00 0.00 63 1013.8
20260505034016 62 0 0.0 4.0 0.00 0.00 0.00 62 1013.9
20260505033514 63 260 0.0 4.0 0.00 0.00 0.00 62 1013.9
20260505033034 63 224 0.0 3.0 0.00 0.00 0.00 61 1014.0
20260505032516 63 266 0.0 4.0 0.00 0.00 0.00 61 1014.0
20260505032017 63 212 1.0 7.0 0.00 0.00 0.00 61 1014.0
20260505031541 63 224 2.0 7.0 0.00 0.00 0.00 62 1014.1
20260505031015 63 283 3.0 8.0 0.00 0.00 0.00 62 1014.1
20260505030517 63 285 2.0 9.0 0.00 0.00 0.00 62 1014.1
20260505030035 63 244 2.0 9.0 0.00 0.00 0.00 62 1014.1
20260505025517 63 193 1.0 6.0 0.00 0.00 0.00 62 1014.2
20260505025021 62 248 1.0 6.0 0.00 0.00 0.00 62 1014.2
20260505024533 62 226 1.0 6.0 0.00 0.00 0.00 62 1014.2
20260505024016 62 242 0.0 3.0 0.00 0.00 0.00 62 1014.1
20260505023516 62 250 0.0 2.0 0.00 0.00 0.00 62 1014.2
20260505023031 62 229 0.0 2.0 0.00 0.00 0.00 61 1014.1
20260505022516 63 0 0.0 1.0 0.00 0.00 0.00 61 1014.1
20260505022016 63 0 0.0 2.0 0.00 0.00 0.00 61 1014.2
20260505021534 63 279 0.0 3.0 0.00 0.00 0.00 60 1014.1
20260505021016 63 0 1.0 3.0 0.00 0.00 0.00 60 1014.1
20260505020513 64 269 1.0 4.0 0.00 0.00 0.00 60 1014.1
20260505020032 64 266 1.0 4.0 0.00 0.00 0.00 60 1014.0
20260505015517 64 264 1.0 4.0 0.00 0.00 0.00 60 1014.0
20260505015014 64 261 2.0 4.0 0.00 0.00 0.00 60 1013.9
20260505014548 63 276 1.0 3.0 0.00 0.00 0.00 60 1013.8
20260505014016 64 293 1.0 3.0 0.00 0.00 0.00 60 1013.9
20260505013516 63 260 1.0 3.0 0.00 0.00 0.00 61 1013.8
20260505013033 63 262 0.0 3.0 0.00 0.00 0.00 61 1013.8
20260505012516 63 0 0.0 1.0 0.00 0.00 0.00 61 1013.7
20260505012016 63 259 0.0 1.0 0.00 0.00 0.00 61 1013.8
20260505011532 63 355 0.0 1.0 0.00 0.00 0.00 61 1013.7
20260505011017 63 0 0.0 1.0 0.00 0.00 0.00 61 1013.6
20260505010516 63 292 0.0 1.0 0.00 0.00 0.00 61 1013.6
20260505010034 63 268 0.0 1.0 0.00 0.00 0.00 60 1013.6
20260505005516 64 0 0.0 0.0 0.00 0.00 0.00 58 1013.6
20260505005017 65 0 0.0 1.0 0.00 0.00 0.00 57 1013.6
20260505004538 65 0 0.0 1.0 0.00 0.00 0.00 56 1013.5
20260505004016 66 0 0.0 1.0 0.00 0.00 0.00 54 1013.5
20260505003515 67 0 0.0 0.0 0.00 0.00 0.00 53 1013.4
20260505003032 67 0 0.0 0.0 0.00 0.00 0.00 52 1013.3
20260505002516 68 0 0.0 0.0 0.00 0.00 0.00 50 1013.3
20260505002017 69 0 0.0 1.0 0.00 0.00 0.00 49 1013.4
20260505001532 70 0 0.0 1.0 0.00 0.00 0.00 49 1013.3
20260505001017 70 0 0.0 2.0 0.00 0.00 0.00 49 1013.3
20260505000519 70 285 0.0 2.0 0.00 0.00 0.00 50 1013.2
20260505000045 70 277 0.0 2.0 0.00 0.00 0.00 49 1013.2
20260504235516 70 289 1.0 2.0 0.00 0.00 0.00 50 1013.1
20260504235018 70 283 1.0 3.0 0.00 0.00 0.00 48 1013.1
20260504234542 70 288 1.0 3.0 0.00 0.00 0.00 48 1013.1
20260504234016 71 281 1.0 7.0 0.00 0.00 0.00 46 1013.1
20260504233516 71 273 2.0 7.0 0.00 0.00 0.00 45 1013.1
20260504233048 71 266 4.0 7.0 0.00 0.00 0.00 45 1013.2
20260504232517 71 275 4.0 7.0 0.00 0.00 0.00 45 1013.1
20260504232015 71 285 3.0 7.0 0.00 0.00 0.00 45 1013.1
20260504231534 72 280 4.0 9.0 0.00 0.00 0.00 44 1013.1
20260504231016 72 257 5.0 9.0 0.00 0.00 0.00 45 1013.1
20260504230516 72 289 4.0 9.0 0.00 0.00 0.00 43 1013.1
20260504230039 72 290 5.0 9.0 0.00 0.00 0.00 43 1013.0
20260504225517 72 245 4.0 9.0 0.00 0.00 0.00 43 1013.1
20260504225016 72 233 5.0 10.0 0.00 0.00 0.00 43 1013.1
20260504224537 73 264 3.0 10.0 0.00 0.00 0.00 43 1013.1
20260504224016 73 262 5.0 10.0 0.00 0.00 0.00 41 1013.2
20260504223516 74 282 5.0 12.0 0.00 0.00 0.00 41 1013.2
20260504223053 74 255 5.0 12.0 0.00 0.00 0.00 42 1013.2
20260504222516 75 266 8.0 12.0 0.00 0.00 0.00 41 1013.2
20260504222020 76 255 5.0 9.0 0.00 0.00 0.00 44 1013.2
20260504221534 76 283 4.0 12.0 0.00 0.00 0.00 44 1013.2
20260504221018 76 268 6.0 12.0 0.00 0.00 0.00 43 1013.2
20260504220514 76 274 6.0 11.0 0.00 0.00 0.00 44 1013.2
20260504220038 75 278 6.0 10.0 0.00 0.00 0.00 46 1013.2
20260504215517 75 271 6.0 12.0 0.00 0.00 0.00 46 1013.1
20260504215016 75 279 6.0 14.0 0.00 0.00 0.00 43 1013.1
20260504214533 75 290 8.0 14.0 0.00 0.00 0.00 42 1013.1
20260504214016 76 293 6.0 14.0 0.00 0.00 0.00 45 1013.2
20260504213516 76 243 7.0 13.0 0.00 0.00 0.00 43 1013.2
20260504213046 76 259 8.0 13.0 0.00 0.00 0.00 45 1013.2
20260504212520 76 278 6.0 13.0 0.00 0.00 0.00 45 1013.2
20260504212018 76 244 5.0 14.0 0.00 0.00 0.00 44 1013.3
20260504211536 76 243 7.0 14.0 0.00 0.00 0.00 44 1013.4
20260504211017 76 281 9.0 14.0 0.00 0.00 0.00 41 1013.4
20260504210517 76 257 5.0 13.0 0.00 0.00 0.00 45 1013.4
20260504210038 76 278 6.0 12.0 0.00 0.00 0.00 43 1013.5
20260504205517 76 240 6.0 13.0 0.00 0.00 0.00 45 1013.7
20260504205017 75 287 6.0 14.0 0.00 0.00 0.00 45 1013.7
20260504204543 76 280 8.0 14.0 0.00 0.00 0.00 45 1013.8
20260504204021 75 232 4.0 12.0 0.00 0.00 0.00 46 1013.8
20260504203514 75 248 6.0 12.0 0.00 0.00 0.00 46 1013.8
20260504203033 75 274 5.0 12.0 0.00 0.00 0.00 47 1013.9
20260504202516 75 287 6.0 15.0 0.00 0.00 0.00 46 1013.9
20260504202014 75 272 9.0 15.0 0.00 0.00 0.00 45 1013.8
20260504201535 76 282 5.0 12.0 0.00 0.00 0.00 44 1013.9
20260504201020 76 247 6.0 12.0 0.00 0.00 0.00 43 1014.0
20260504200514 76 241 7.0 12.0 0.00 0.00 0.00 46 1013.9
20260504200034 77 236 4.0 11.0 0.00 0.00 0.00 45 1014.0
20260504195516 77 205 6.0 11.0 0.00 0.00 0.00 45 1014.2
20260504195016 76 141 1.0 11.0 0.00 0.00 0.00 51 1014.3
20260504194532 75 205 4.0 14.0 0.00 0.00 0.00 48 1014.4
20260504194018 75 205 6.0 14.0 0.00 0.00 0.00 47 1014.5
20260504193518 75 280 4.0 12.0 0.00 0.00 0.00 48 1014.5
20260504193031 75 283 5.0 12.0 0.00 0.00 0.00 51 1014.7
20260504192516 75 288 4.0 11.0 0.00 0.00 0.00 52 1014.8
20260504192016 75 271 5.0 11.0 0.00 0.00 0.00 52 1014.8
20260504191533 75 254 3.0 11.0 0.00 0.00 0.00 53 1014.9
20260504191017 74 260 6.0 10.0 0.00 0.00 0.00 50 1015.0
20260504190516 74 207 5.0 11.0 0.00 0.00 0.00 49 1015.1
20260504190037 74 291 4.0 11.0 0.00 0.00 0.00 52 1015.1
20260504185514 74 217 6.0 11.0 0.00 0.00 0.00 51 1015.3
20260504185015 73 278 6.0 10.0 0.00 0.00 0.00 55 1015.3
20260504184534 73 248 6.0 10.0 0.00 0.00 0.00 51 1015.4
20260504184015 73 304 5.0 11.0 0.00 0.00 0.00 51 1015.4
20260504183517 73 289 5.0 11.0 0.00 0.00 0.00 55 1015.5
20260504183034 73 284 5.0 10.0 0.00 0.00 0.00 53 1015.6
20260504182516 73 264 3.0 10.0 0.00 0.00 0.00 55 1015.7
20260504182017 73 278 3.0 12.0 0.00 0.00 0.00 51 1015.6
20260504181542 73 283 7.0 12.0 0.00 0.00 0.00 52 1015.7
20260504181015 72 200 4.0 10.0 0.00 0.00 0.00 55 1015.7
20260504180514 72 294 4.0 11.0 0.00 0.00 0.00 54 1015.7
20260504180033 72 282 6.0 11.0 0.00 0.00 0.00 51 1015.8
20260504175515 72 278 3.0 11.0 0.00 0.00 0.00 56 1015.8
20260504175015 71 281 6.0 11.0 0.00 0.00 0.00 51 1015.9
20260504174534 72 296 7.0 11.0 0.00 0.00 0.00 51 1016.0
20260504174015 72 268 5.0 8.0 0.00 0.00 0.00 51 1016.1
20260504173515 72 319 3.0 10.0 0.00 0.00 0.00 51 1016.1
20260504173032 72 239 5.0 10.0 0.00 0.00 0.00 52 1016.3
20260504172514 71 262 2.0 10.0 0.00 0.00 0.00 50 1016.4
20260504172017 71 312 5.0 10.0 0.00 0.00 0.00 54 1016.2
20260504171535 72 252 3.0 10.0 0.00 0.00 0.00 51 1016.4
20260504171016 71 235 3.0 12.0 0.00 0.00 0.00 51 1016.4
20260504170513 71 214 6.0 13.0 0.00 0.00 0.00 53 1016.5
20260504151015 64 267 5.0 12.0 0.00 0.00 0.00 56 1018.2
20260504150513 63 231 7.0 12.0 0.00 0.00 0.00 56 1018.2
20260504141015 61 211 0.0 1.0 0.00 0.00 0.00 62 1018.8
20260504140516 61 0 0.0 1.0 0.00 0.00 0.00 63 1018.9
20260504130516 57 186 1.0 6.0 0.00 0.00 0.00 66 1018.6
20260504110516 45 0 0.0 0.0 0.00 0.00 0.00 85 1017.6
20260504100517 43 0 0.0 0.0 0.00 0.00 0.00 84 1017.4
20260504081534 47 0 0.0 0.0 0.00 0.00 0.00 75 1017.9
20260504081016 47 0 0.0 0.0 0.00 0.00 0.00 75 1017.9
20260504080516 47 0 0.0 0.0 0.00 0.00 0.00 75 1018.1